TimeEDT,TemperatureF,Dew PointF,Humidity,Sea Level PressureIn,VisibilityMPH,Wind Direction,Wind SpeedMPH,Gust SpeedMPH,PrecipitationIn,Events,Conditions,WindDirDegrees,DateUTC
12:53 AM,66.0,60.1,81,30.07,6.0,Calm,Calm,-,N/A,,Haze,0,2013-10-03 04:53:00
1:53 AM,68.0,61.0,78,30.06,5.0,SSE,4.6,-,N/A,,Haze,160,2013-10-03 05:53:00
2:53 AM,66.9,61.0,81,30.06,4.0,SE,3.5,-,N/A,,Haze,140,2013-10-03 06:53:00
3:53 AM,66.9,61.0,81,30.04,4.0,SSE,5.8,-,N/A,,Haze,150,2013-10-03 07:53:00
4:53 AM,68.0,61.0,78,30.03,5.0,Calm,Calm,-,N/A,,Haze,0,2013-10-03 08:53:00
5:53 AM,66.0,60.1,81,30.04,3.0,Calm,Calm,-,N/A,,Haze,0,2013-10-03 09:53:00
6:53 AM,68.0,62.1,81,30.05,4.0,South,6.9,-,N/A,,Haze,190,2013-10-03 10:53:00
7:41 AM,68.0,62.6,83,30.06,2.5,South,3.5,-,N/A,,Haze,180,2013-10-03 11:41:00
7:53 AM,68.0,62.1,81,30.06,2.5,SSW,3.5,-,N/A,,Haze,200,2013-10-03 11:53:00
8:51 AM,71.6,62.6,73,30.06,3.0,South,4.6,-,N/A,,Haze,180,2013-10-03 12:51:00
8:53 AM,71.1,63.0,75,30.06,3.0,South,4.6,-,N/A,,Haze,190,2013-10-03 12:53:00
9:53 AM,73.9,64.0,71,30.06,4.0,SSW,5.8,-,N/A,,Haze,210,2013-10-03 13:53:00
10:53 AM,80.1,66.0,62,30.05,6.0,SW,8.1,-,N/A,,Haze,220,2013-10-03 14:53:00
11:53 AM,81.0,64.9,58,30.05,8.0,WSW,6.9,-,N/A,,Scattered Clouds,250,2013-10-03 15:53:00
12:34 PM,80.6,64.4,58,30.05,8.0,West,8.1,-,N/A,,Mostly Cloudy,270,2013-10-03 16:34:00
12:44 PM,82.4,66.2,58,30.05,8.0,West,8.1,-,N/A,,Scattered Clouds,270,2013-10-03 16:44:00
12:53 PM,81.0,66.0,60,30.04,8.0,WSW,6.9,-,0.00,Rain,Light Rain,250,2013-10-03 16:53:00
1:53 PM,82.9,66.0,56,30.01,9.0,WSW,12.7,-,0.01,,Scattered Clouds,250,2013-10-03 17:53:00
2:53 PM,82.9,66.0,56,30.00,10.0,West,6.9,-,N/A,,Partly Cloudy,260,2013-10-03 18:53:00
3:53 PM,82.0,64.9,56,29.99,10.0,WSW,8.1,-,N/A,,Mostly Cloudy,250,2013-10-03 19:53:00
4:53 PM,79.0,66.0,64,30.00,10.0,SW,8.1,-,0.00,,Partly Cloudy,230,2013-10-03 20:53:00
5:53 PM,78.1,68.0,71,30.00,10.0,SSW,6.9,-,0.00,Rain,Light Rain,210,2013-10-03 21:53:00
6:53 PM,75.0,66.0,73,29.99,10.0,South,5.8,-,0.00,,Clear,190,2013-10-03 22:53:00
7:53 PM,73.0,64.9,76,30.00,10.0,SSW,5.8,-,N/A,,Clear,200,2013-10-03 23:53:00
8:53 PM,71.1,64.0,78,30.00,10.0,South,8.1,-,N/A,,Clear,170,2013-10-04 00:53:00
9:53 PM,72.0,64.9,78,30.02,10.0,SSW,5.8,-,N/A,,Overcast,210,2013-10-04 01:53:00
10:53 PM,72.0,64.9,78,30.03,10.0,SSW,5.8,-,0.01,Rain,Light Rain,210,2013-10-04 02:53:00